Home > Weather > Hong Kong > Past weeks

Flag for Hong Kong Weather for the Past 2 Weeks in Hong Kong, Hong Kong

Now
75 °F

Passing clouds.


Feels Like: 74 °F
Forecast: 76 / 85 °F
Wind: 5 mph from East

Location: National Airport

Current Time: May 4, 2016 at 5:06:50 AM

Latest Report: May 4, 2016 at 4:30 AM


Visibility: 6 mi

Pressure: 29.83 "Hg

Humidity: 94%

Dew Point: 73 °F

Location of Hong KongLocation

Historic Weather in Hong Kong — Graph

°F

Hong Kong Temperature Yesterday

Maximum temperature yesterday: 88 °F (at 1:00 PM)
Minimum temperature yesterday: 75 °F (at 6:30 PM)
Average temperature yesterday: 81 °F

High & Low Weather Summary for the Past Weeks

 TemperatureHumidityPressure
High88 °F (May 3, 1:00 PM)94% (Apr 21, 1:30 AM)30.07 "Hg (Apr 21, 1:30 AM)
Low68 °F (Apr 19, 4:00 PM)54% (Apr 29, 3:00 PM)29.71 "Hg (Apr 23, 2:30 PM)
Average78 °F79%29.85 "Hg
* Reported Apr 19 4:00 AM — May 4 4:00 AM, Hong Kong, Weather by CustomWeather, © 2016

Note: Actual official high and low records may vary slightly from our data, if they occured in-between our weather recording intervals... More about our weather records

Advertising

Hong Kong Weather History for the Previous 24 Hours

Scroll right to see more
 ConditionsComfort  
Time TempWeatherWind HumidityBarometerVisibility
4:00 AM
Wed, May 4
75 °FPassing clouds.5 mph94%29.83 "HgN/A
3:30 AM75 °FPassing clouds.3 mph94%29.83 "HgN/A
3:00 AM75 °FPassing clouds.2 mph89%29.83 "HgN/A
2:30 AM75 °FPassing clouds.2 mph94%29.83 "Hg6 mi
2:00 AM75 °FSprinkles. Passing clouds.10 mph89%29.83 "HgN/A
1:30 AM75 °FSprinkles. Passing clouds.5 mph89%29.86 "HgN/A
1:00 AM75 °FSprinkles. Passing clouds.6 mph94%29.86 "HgN/A
12:30 AM75 °FSprinkles. Passing clouds.3 mph89%29.89 "HgN/A
12:00 AM75 °FSprinkles. Passing clouds.5 mph83%29.89 "HgN/A
11:30 PM
Tue, May 3
77 °FSprinkles. Passing clouds.6 mph83%29.89 "HgN/A
11:00 PM75 °FSprinkles. Passing clouds.6 mph89%29.92 "HgN/A
10:30 PM75 °FSprinkles. Passing clouds.3 mph83%29.89 "HgN/A
10:00 PM75 °FSprinkles. Passing clouds.5 mph83%29.89 "HgN/A
9:30 PM75 °FSprinkles. Passing clouds.3 mph83%29.89 "HgN/A
9:00 PM77 °FThundershowers. Passing clouds.7 mph74%29.92 "HgN/A
8:30 PM75 °FThundershowers. Passing clouds.17 mph83%29.89 "HgN/A
7:30 PM75 °FThunderstorms. Passing clouds.9 mph83%29.89 "HgN/A
7:00 PM75 °FThunderstorms. Passing clouds.16 mph94%29.86 "Hg4 mi
6:30 PM75 °FStrong thunderstorms. Scattered clouds.14 mph94%29.89 "Hg1 mi
6:00 PM77 °FThundershowers. Scattered clouds.7 mph89%29.89 "Hg2 mi
5:00 PM79 °FThundershowers. Scattered clouds.18 mph84%29.86 "HgN/A
4:30 PM82 °FThundershowers. Scattered clouds.6 mph74%29.83 "HgN/A
4:00 PM86 °FThundershowers. Scattered clouds.9 mph70%29.83 "HgN/A
3:30 PM86 °FScattered clouds.13 mph75%29.83 "HgN/A
3:00 PM86 °FScattered clouds.13 mph70%29.83 "HgN/A
2:30 PM86 °FScattered clouds.13 mph70%29.80 "HgN/A
2:00 PM88 °FScattered clouds.9 mph70%29.83 "HgN/A
1:30 PM88 °FScattered clouds.9 mph70%29.83 "HgN/A
1:00 PM88 °FScattered clouds.3 mph66%29.86 "HgN/A
12:30 PM86 °FScattered clouds.5 mph70%29.86 "HgN/A
12:00 PM86 °FScattered clouds.8 mph70%29.89 "HgN/A
11:00 AM84 °FScattered clouds.6 mph79%29.89 "HgN/A
10:30 AM86 °FScattered clouds.6 mph70%29.89 "HgN/A
9:30 AM86 °FScattered clouds.6 mph70%29.89 "HgN/A
9:00 AM84 °FScattered clouds.8 mph79%29.89 "Hg4 mi
8:30 AM82 °FScattered clouds.8 mph84%29.89 "Hg3 mi
8:00 AM82 °FScattered clouds.10 mph79%29.89 "HgN/A
7:30 AM82 °FScattered clouds.5 mph79%29.86 "HgN/A
7:00 AM81 °FScattered clouds.5 mph84%29.86 "HgN/A
6:00 AM79 °FScattered clouds.7 mph94%29.86 "HgN/A
5:30 AM81 °FPassing clouds.8 mph84%29.83 "Hg4 mi
5:00 AM79 °FPassing clouds.8 mph89%29.83 "HgN/A
Weather by CustomWeather, © 2016

See weather overviewHow to use our weather pages